Index of /20260501/WXO-DD/model_gdps/15km/00/054
Name Last modified Size Description
Parent Directory -
20260501T00Z_MSC_GDPS_AbsoluteVorticity_IsbL-0200_LatLon0.15_PT054H.grib2 2026-05-01 04:10 1.5M
20260501T00Z_MSC_GDPS_AbsoluteVorticity_IsbL-0250_LatLon0.15_PT054H.grib2 2026-05-01 04:10 1.3M
20260501T00Z_MSC_GDPS_AbsoluteVorticity_IsbL-0500_LatLon0.15_PT054H.grib2 2026-05-01 04:10 1.4M
20260501T00Z_MSC_GDPS_AbsoluteVorticity_IsbL-0700_LatLon0.15_PT054H.grib2 2026-05-01 04:10 1.3M
20260501T00Z_MSC_GDPS_AbsoluteVorticity_IsbL-0850_LatLon0.15_PT054H.grib2 2026-05-01 04:10 1.6M
20260501T00Z_MSC_GDPS_AirTemp-Max_AGL-2m_LatLon0.15_PT054H.grib2 2026-05-01 04:10 743K
20260501T00Z_MSC_GDPS_AirTemp-Min_AGL-2m_LatLon0.15_PT054H.grib2 2026-05-01 04:10 788K
20260501T00Z_MSC_GDPS_AirTemp_AGL-120m_LatLon0.15_PT054H.grib2 2026-05-01 04:10 905K
20260501T00Z_MSC_GDPS_AirTemp_AGL-2m_LatLon0.15_PT054H.grib2 2026-05-01 04:10 1.0M
20260501T00Z_MSC_GDPS_AirTemp_AGL-40m_LatLon0.15_PT054H.grib2 2026-05-01 04:10 925K
20260501T00Z_MSC_GDPS_AirTemp_AGL-80m_LatLon0.15_PT054H.grib2 2026-05-01 04:10 914K
20260501T00Z_MSC_GDPS_AirTemp_IsbL-0001_LatLon0.15_PT054H.grib2 2026-05-01 04:10 654K
20260501T00Z_MSC_GDPS_AirTemp_IsbL-0005_LatLon0.15_PT054H.grib2 2026-05-01 04:10 685K
20260501T00Z_MSC_GDPS_AirTemp_IsbL-0010_LatLon0.15_PT054H.grib2 2026-05-01 04:10 689K
20260501T00Z_MSC_GDPS_AirTemp_IsbL-0020_LatLon0.15_PT054H.grib2 2026-05-01 04:10 785K
20260501T00Z_MSC_GDPS_AirTemp_IsbL-0030_LatLon0.15_PT054H.grib2 2026-05-01 04:10 748K
20260501T00Z_MSC_GDPS_AirTemp_IsbL-0050_LatLon0.15_PT054H.grib2 2026-05-01 04:10 809K
20260501T00Z_MSC_GDPS_AirTemp_IsbL-0100_LatLon0.15_PT054H.grib2 2026-05-01 04:10 958K
20260501T00Z_MSC_GDPS_AirTemp_IsbL-0150_LatLon0.15_PT054H.grib2 2026-05-01 04:10 971K
20260501T00Z_MSC_GDPS_AirTemp_IsbL-0175_LatLon0.15_PT054H.grib2 2026-05-01 04:10 956K
20260501T00Z_MSC_GDPS_AirTemp_IsbL-0200_LatLon0.15_PT054H.grib2 2026-05-01 04:10 969K
20260501T00Z_MSC_GDPS_AirTemp_IsbL-0225_LatLon0.15_PT054H.grib2 2026-05-01 04:10 1.0M
20260501T00Z_MSC_GDPS_AirTemp_IsbL-0250_LatLon0.15_PT054H.grib2 2026-05-01 04:10 1.0M
20260501T00Z_MSC_GDPS_AirTemp_IsbL-0275_LatLon0.15_PT054H.grib2 2026-05-01 04:10 1.0M
20260501T00Z_MSC_GDPS_AirTemp_IsbL-0300_LatLon0.15_PT054H.grib2 2026-05-01 04:10 1.0M
20260501T00Z_MSC_GDPS_AirTemp_IsbL-0350_LatLon0.15_PT054H.grib2 2026-05-01 04:10 924K
20260501T00Z_MSC_GDPS_AirTemp_IsbL-0400_LatLon0.15_PT054H.grib2 2026-05-01 04:10 935K
20260501T00Z_MSC_GDPS_AirTemp_IsbL-0450_LatLon0.15_PT054H.grib2 2026-05-01 04:10 959K
20260501T00Z_MSC_GDPS_AirTemp_IsbL-0500_LatLon0.15_PT054H.grib2 2026-05-01 04:10 1.0M
20260501T00Z_MSC_GDPS_AirTemp_IsbL-0550_LatLon0.15_PT054H.grib2 2026-05-01 04:10 796K
20260501T00Z_MSC_GDPS_AirTemp_IsbL-0600_LatLon0.15_PT054H.grib2 2026-05-01 04:10 891K
20260501T00Z_MSC_GDPS_AirTemp_IsbL-0650_LatLon0.15_PT054H.grib2 2026-05-01 04:10 914K
20260501T00Z_MSC_GDPS_AirTemp_IsbL-0700_LatLon0.15_PT054H.grib2 2026-05-01 04:10 947K
20260501T00Z_MSC_GDPS_AirTemp_IsbL-0750_LatLon0.15_PT054H.grib2 2026-05-01 04:10 1.0M
20260501T00Z_MSC_GDPS_AirTemp_IsbL-0800_LatLon0.15_PT054H.grib2 2026-05-01 04:10 1.1M
20260501T00Z_MSC_GDPS_AirTemp_IsbL-0850_LatLon0.15_PT054H.grib2 2026-05-01 04:10 1.1M
20260501T00Z_MSC_GDPS_AirTemp_IsbL-0875_LatLon0.15_PT054H.grib2 2026-05-01 04:10 1.2M
20260501T00Z_MSC_GDPS_AirTemp_IsbL-0900_LatLon0.15_PT054H.grib2 2026-05-01 04:10 1.1M
20260501T00Z_MSC_GDPS_AirTemp_IsbL-0925_LatLon0.15_PT054H.grib2 2026-05-01 04:10 1.1M
20260501T00Z_MSC_GDPS_AirTemp_IsbL-0950_LatLon0.15_PT054H.grib2 2026-05-01 04:10 1.1M
20260501T00Z_MSC_GDPS_AirTemp_IsbL-0970_LatLon0.15_PT054H.grib2 2026-05-01 04:10 1.1M
20260501T00Z_MSC_GDPS_AirTemp_IsbL-0985_LatLon0.15_PT054H.grib2 2026-05-01 04:10 1.1M
20260501T00Z_MSC_GDPS_AirTemp_IsbL-1000_LatLon0.15_PT054H.grib2 2026-05-01 04:10 1.1M
20260501T00Z_MSC_GDPS_AirTemp_IsbL-1015_LatLon0.15_PT054H.grib2 2026-05-01 04:10 1.1M
20260501T00Z_MSC_GDPS_Albedo_Sfc_LatLon0.15_PT054H.grib2 2026-05-01 04:10 243K
20260501T00Z_MSC_GDPS_CAPE_Sfc_LatLon0.15_PT054H.grib2 2026-05-01 04:10 4.1M
20260501T00Z_MSC_GDPS_CIN_Sfc_LatLon0.15_PT054H.grib2 2026-05-01 04:10 2.9M
20260501T00Z_MSC_GDPS_CloudWater_EAtm_LatLon0.15_PT054H.grib2 2026-05-01 04:10 530K
20260501T00Z_MSC_GDPS_ConvectivePrecip-Accum_Sfc_LatLon0.15_PT054H.grib2 2026-05-01 04:10 3.0M
20260501T00Z_MSC_GDPS_DewPointDepression_AGL-2m_LatLon0.15_PT054H.grib2 2026-05-01 04:10 766K
20260501T00Z_MSC_GDPS_DewPointDepression_IsbL-0010_LatLon0.15_PT054H.grib2 2026-05-01 04:10 66K
20260501T00Z_MSC_GDPS_DewPointDepression_IsbL-0020_LatLon0.15_PT054H.grib2 2026-05-01 04:10 67K
20260501T00Z_MSC_GDPS_DewPointDepression_IsbL-0030_LatLon0.15_PT054H.grib2 2026-05-01 04:10 81K
20260501T00Z_MSC_GDPS_DewPointDepression_IsbL-0050_LatLon0.15_PT054H.grib2 2026-05-01 04:10 376K
20260501T00Z_MSC_GDPS_DewPointDepression_IsbL-0100_LatLon0.15_PT054H.grib2 2026-05-01 04:10 408K
20260501T00Z_MSC_GDPS_DewPointDepression_IsbL-0150_LatLon0.15_PT054H.grib2 2026-05-01 04:10 467K
20260501T00Z_MSC_GDPS_DewPointDepression_IsbL-0175_LatLon0.15_PT054H.grib2 2026-05-01 04:10 579K
20260501T00Z_MSC_GDPS_DewPointDepression_IsbL-0200_LatLon0.15_PT054H.grib2 2026-05-01 04:10 682K
20260501T00Z_MSC_GDPS_DewPointDepression_IsbL-0225_LatLon0.15_PT054H.grib2 2026-05-01 04:10 775K
20260501T00Z_MSC_GDPS_DewPointDepression_IsbL-0250_LatLon0.15_PT054H.grib2 2026-05-01 04:10 855K
20260501T00Z_MSC_GDPS_DewPointDepression_IsbL-0275_LatLon0.15_PT054H.grib2 2026-05-01 04:10 876K
20260501T00Z_MSC_GDPS_DewPointDepression_IsbL-0300_LatLon0.15_PT054H.grib2 2026-05-01 04:10 915K
20260501T00Z_MSC_GDPS_DewPointDepression_IsbL-0350_LatLon0.15_PT054H.grib2 2026-05-01 04:10 949K
20260501T00Z_MSC_GDPS_DewPointDepression_IsbL-0400_LatLon0.15_PT054H.grib2 2026-05-01 04:10 1.0M
20260501T00Z_MSC_GDPS_DewPointDepression_IsbL-0450_LatLon0.15_PT054H.grib2 2026-05-01 04:10 1.0M
20260501T00Z_MSC_GDPS_DewPointDepression_IsbL-0500_LatLon0.15_PT054H.grib2 2026-05-01 04:10 1.0M
20260501T00Z_MSC_GDPS_DewPointDepression_IsbL-0550_LatLon0.15_PT054H.grib2 2026-05-01 04:10 1.0M
20260501T00Z_MSC_GDPS_DewPointDepression_IsbL-0600_LatLon0.15_PT054H.grib2 2026-05-01 04:10 1.0M
20260501T00Z_MSC_GDPS_DewPointDepression_IsbL-0650_LatLon0.15_PT054H.grib2 2026-05-01 04:10 1.1M
20260501T00Z_MSC_GDPS_DewPointDepression_IsbL-0700_LatLon0.15_PT054H.grib2 2026-05-01 04:10 1.1M
20260501T00Z_MSC_GDPS_DewPointDepression_IsbL-0750_LatLon0.15_PT054H.grib2 2026-05-01 04:10 1.1M
20260501T00Z_MSC_GDPS_DewPointDepression_IsbL-0800_LatLon0.15_PT054H.grib2 2026-05-01 04:10 1.2M
20260501T00Z_MSC_GDPS_DewPointDepression_IsbL-0850_LatLon0.15_PT054H.grib2 2026-05-01 04:10 1.2M
20260501T00Z_MSC_GDPS_DewPointDepression_IsbL-0875_LatLon0.15_PT054H.grib2 2026-05-01 04:10 1.1M
20260501T00Z_MSC_GDPS_DewPointDepression_IsbL-0900_LatLon0.15_PT054H.grib2 2026-05-01 04:10 1.1M
20260501T00Z_MSC_GDPS_DewPointDepression_IsbL-0925_LatLon0.15_PT054H.grib2 2026-05-01 04:10 1.0M
20260501T00Z_MSC_GDPS_DewPointDepression_IsbL-0950_LatLon0.15_PT054H.grib2 2026-05-01 04:10 1.0M
20260501T00Z_MSC_GDPS_DewPointDepression_IsbL-0970_LatLon0.15_PT054H.grib2 2026-05-01 04:10 1.0M
20260501T00Z_MSC_GDPS_DewPointDepression_IsbL-0985_LatLon0.15_PT054H.grib2 2026-05-01 04:10 1.0M
20260501T00Z_MSC_GDPS_DewPointDepression_IsbL-1000_LatLon0.15_PT054H.grib2 2026-05-01 04:10 971K
20260501T00Z_MSC_GDPS_DewPointDepression_IsbL-1015_LatLon0.15_PT054H.grib2 2026-05-01 04:10 912K
20260501T00Z_MSC_GDPS_DewPoint_AGL-2m_LatLon0.15_PT054H.grib2 2026-05-01 04:10 606K
20260501T00Z_MSC_GDPS_DownwardLongwaveRadiationFlux-Accum_Sfc_LatLon0.15_PT054H.grib2 2026-05-01 04:10 844K
20260501T00Z_MSC_GDPS_DownwardShortwaveRadiationFlux-Accum_NTAtm_LatLon0.15_PT054H.grib2 2026-05-01 04:10 187K
20260501T00Z_MSC_GDPS_DownwardShortwaveRadiationFlux-Accum_Sfc_LatLon0.15_PT054H.grib2 2026-05-01 04:10 1.0M
20260501T00Z_MSC_GDPS_FreezingRain-Accum12h_Sfc_LatLon0.15_PT054H.grib2 2026-05-01 04:10 88K
20260501T00Z_MSC_GDPS_FreezingRain-Accum1h_Sfc_LatLon0.15_PT054H.grib2 2026-05-01 04:10 34K
20260501T00Z_MSC_GDPS_FreezingRain-Accum24h_Sfc_LatLon0.15_PT054H.grib2 2026-05-01 04:10 140K
20260501T00Z_MSC_GDPS_FreezingRain-Accum3h_Sfc_LatLon0.15_PT054H.grib2 2026-05-01 04:10 38K
20260501T00Z_MSC_GDPS_FreezingRain-Accum6h_Sfc_LatLon0.15_PT054H.grib2 2026-05-01 04:10 57K
20260501T00Z_MSC_GDPS_FreezingRain-Accum_Sfc_LatLon0.15_PT054H.grib2 2026-05-01 04:10 277K
20260501T00Z_MSC_GDPS_GeopotentialHeight_IsbL-0001_LatLon0.15_PT054H.grib2 2026-05-01 04:10 422K
20260501T00Z_MSC_GDPS_GeopotentialHeight_IsbL-0005_LatLon0.15_PT054H.grib2 2026-05-01 04:10 485K
20260501T00Z_MSC_GDPS_GeopotentialHeight_IsbL-0010_LatLon0.15_PT054H.grib2 2026-05-01 04:10 478K
20260501T00Z_MSC_GDPS_GeopotentialHeight_IsbL-0020_LatLon0.15_PT054H.grib2 2026-05-01 04:10 414K
20260501T00Z_MSC_GDPS_GeopotentialHeight_IsbL-0030_LatLon0.15_PT054H.grib2 2026-05-01 04:10 569K
20260501T00Z_MSC_GDPS_GeopotentialHeight_IsbL-0050_LatLon0.15_PT054H.grib2 2026-05-01 04:10 566K
20260501T00Z_MSC_GDPS_GeopotentialHeight_IsbL-0100_LatLon0.15_PT054H.grib2 2026-05-01 04:10 605K
20260501T00Z_MSC_GDPS_GeopotentialHeight_IsbL-0150_LatLon0.15_PT054H.grib2 2026-05-01 04:10 624K
20260501T00Z_MSC_GDPS_GeopotentialHeight_IsbL-0175_LatLon0.15_PT054H.grib2 2026-05-01 04:10 627K
20260501T00Z_MSC_GDPS_GeopotentialHeight_IsbL-0200_LatLon0.15_PT054H.grib2 2026-05-01 04:10 631K
20260501T00Z_MSC_GDPS_GeopotentialHeight_IsbL-0225_LatLon0.15_PT054H.grib2 2026-05-01 04:10 629K
20260501T00Z_MSC_GDPS_GeopotentialHeight_IsbL-0250_LatLon0.15_PT054H.grib2 2026-05-01 04:10 637K
20260501T00Z_MSC_GDPS_GeopotentialHeight_IsbL-0275_LatLon0.15_PT054H.grib2 2026-05-01 04:10 635K
20260501T00Z_MSC_GDPS_GeopotentialHeight_IsbL-0300_LatLon0.15_PT054H.grib2 2026-05-01 04:10 627K
20260501T00Z_MSC_GDPS_GeopotentialHeight_IsbL-0350_LatLon0.15_PT054H.grib2 2026-05-01 04:10 624K
20260501T00Z_MSC_GDPS_GeopotentialHeight_IsbL-0400_LatLon0.15_PT054H.grib2 2026-05-01 04:10 615K
20260501T00Z_MSC_GDPS_GeopotentialHeight_IsbL-0450_LatLon0.15_PT054H.grib2 2026-05-01 04:10 606K
20260501T00Z_MSC_GDPS_GeopotentialHeight_IsbL-0500_LatLon0.15_PT054H.grib2 2026-05-01 04:10 598K
20260501T00Z_MSC_GDPS_GeopotentialHeight_IsbL-0550_LatLon0.15_PT054H.grib2 2026-05-01 04:10 526K
20260501T00Z_MSC_GDPS_GeopotentialHeight_IsbL-0600_LatLon0.15_PT054H.grib2 2026-05-01 04:10 521K
20260501T00Z_MSC_GDPS_GeopotentialHeight_IsbL-0650_LatLon0.15_PT054H.grib2 2026-05-01 04:10 686K
20260501T00Z_MSC_GDPS_GeopotentialHeight_IsbL-0700_LatLon0.15_PT054H.grib2 2026-05-01 04:10 686K
20260501T00Z_MSC_GDPS_GeopotentialHeight_IsbL-0750_LatLon0.15_PT054H.grib2 2026-05-01 04:10 687K
20260501T00Z_MSC_GDPS_GeopotentialHeight_IsbL-0800_LatLon0.15_PT054H.grib2 2026-05-01 04:10 701K
20260501T00Z_MSC_GDPS_GeopotentialHeight_IsbL-0850_LatLon0.15_PT054H.grib2 2026-05-01 04:10 710K
20260501T00Z_MSC_GDPS_GeopotentialHeight_IsbL-0875_LatLon0.15_PT054H.grib2 2026-05-01 04:10 718K
20260501T00Z_MSC_GDPS_GeopotentialHeight_IsbL-0900_LatLon0.15_PT054H.grib2 2026-05-01 04:10 725K
20260501T00Z_MSC_GDPS_GeopotentialHeight_IsbL-0925_LatLon0.15_PT054H.grib2 2026-05-01 04:10 731K
20260501T00Z_MSC_GDPS_GeopotentialHeight_IsbL-0950_LatLon0.15_PT054H.grib2 2026-05-01 04:10 742K
20260501T00Z_MSC_GDPS_GeopotentialHeight_IsbL-0970_LatLon0.15_PT054H.grib2 2026-05-01 04:10 754K
20260501T00Z_MSC_GDPS_GeopotentialHeight_IsbL-0985_LatLon0.15_PT054H.grib2 2026-05-01 04:10 768K
20260501T00Z_MSC_GDPS_GeopotentialHeight_IsbL-1000_LatLon0.15_PT054H.grib2 2026-05-01 04:10 789K
20260501T00Z_MSC_GDPS_GeopotentialHeight_IsbL-1015_LatLon0.15_PT054H.grib2 2026-05-01 04:10 809K
20260501T00Z_MSC_GDPS_Humidex_Sfc_LatLon0.15_PT054H.grib2 2026-05-01 04:10 5.3M
20260501T00Z_MSC_GDPS_IcePellets-Accum12h_Sfc_LatLon0.15_PT054H.grib2 2026-05-01 04:10 14K
20260501T00Z_MSC_GDPS_IcePellets-Accum1h_Sfc_LatLon0.15_PT054H.grib2 2026-05-01 04:10 4.5K
20260501T00Z_MSC_GDPS_IcePellets-Accum24h_Sfc_LatLon0.15_PT054H.grib2 2026-05-01 04:10 23K
20260501T00Z_MSC_GDPS_IcePellets-Accum3h_Sfc_LatLon0.15_PT054H.grib2 2026-05-01 04:10 5.0K
20260501T00Z_MSC_GDPS_IcePellets-Accum6h_Sfc_LatLon0.15_PT054H.grib2 2026-05-01 04:10 8.1K
20260501T00Z_MSC_GDPS_IcePellets-Accum_Sfc_LatLon0.15_PT054H.grib2 2026-05-01 04:10 58K
20260501T00Z_MSC_GDPS_KIndex_Sfc_LatLon0.15_PT054H.grib2 2026-05-01 04:10 6.5M
20260501T00Z_MSC_GDPS_LatentHeatNetFlux_Sfc_LatLon0.15_PT054H.grib2 2026-05-01 04:10 539K
20260501T00Z_MSC_GDPS_LiftedIndex-MU-VT_IsbL-0500_LatLon0.15_PT054H.grib2 2026-05-01 04:10 5.4M
20260501T00Z_MSC_GDPS_NetLongwaveRadiationFlux-Accum_Sfc_LatLon0.15_PT054H.grib2 2026-05-01 04:10 1.1M
20260501T00Z_MSC_GDPS_NetShortwaveRadiationFlux-Accum_Sfc_LatLon0.15_PT054H.grib2 2026-05-01 04:10 1.0M
20260501T00Z_MSC_GDPS_O3MixingRatio_Sfc_LatLon0.15_PT054H.grib2 2026-05-01 04:50 2.0M
20260501T00Z_MSC_GDPS_O3_EAtm_LatLon0.15_PT054H.grib2 2026-05-01 04:50 2.4M
20260501T00Z_MSC_GDPS_PlanetaryBoundaryLayerHeight_Sfc_LatLon0.15_PT054H.grib2 2026-05-01 04:10 2.5M
20260501T00Z_MSC_GDPS_Precip-Accum12h_Sfc_LatLon0.15_PT054H.grib2 2026-05-01 04:10 4.3M
20260501T00Z_MSC_GDPS_Precip-Accum1h_Sfc_LatLon0.15_PT054H.grib2 2026-05-01 04:10 3.2M
20260501T00Z_MSC_GDPS_Precip-Accum24h_Sfc_LatLon0.15_PT054H.grib2 2026-05-01 04:10 4.5M
20260501T00Z_MSC_GDPS_Precip-Accum3h_Sfc_LatLon0.15_PT054H.grib2 2026-05-01 04:10 3.5M
20260501T00Z_MSC_GDPS_Precip-Accum6h_Sfc_LatLon0.15_PT054H.grib2 2026-05-01 04:10 3.9M
20260501T00Z_MSC_GDPS_Precip-Accum_Sfc_LatLon0.15_PT054H.grib2 2026-05-01 04:10 4.9M
20260501T00Z_MSC_GDPS_PrecipRate_Sfc_LatLon0.15_PT054H.grib2 2026-05-01 04:10 3.0M
20260501T00Z_MSC_GDPS_PrecipType-Instant_Sfc_LatLon0.15_PT054H.grib2 2026-05-01 04:10 1.6M
20260501T00Z_MSC_GDPS_Pressure_MSL_LatLon0.15_PT054H.grib2 2026-05-01 04:10 819K
20260501T00Z_MSC_GDPS_Pressure_PVU-1.5_LatLon0.15_PT054H.grib2 2026-05-01 04:10 5.8M
20260501T00Z_MSC_GDPS_Pressure_PVU-1_LatLon0.15_PT054H.grib2 2026-05-01 04:10 6.0M
20260501T00Z_MSC_GDPS_Pressure_PVU-2_LatLon0.15_PT054H.grib2 2026-05-01 04:10 5.6M
20260501T00Z_MSC_GDPS_Pressure_Sfc_LatLon0.15_PT054H.grib2 2026-05-01 04:10 1.1M
20260501T00Z_MSC_GDPS_RadiativeTemp_Sfc_LatLon0.15_PT054H.grib2 2026-05-01 04:10 496K
20260501T00Z_MSC_GDPS_Rain-Accum12h_Sfc_LatLon0.15_PT054H.grib2 2026-05-01 04:10 2.9M
20260501T00Z_MSC_GDPS_Rain-Accum1h_Sfc_LatLon0.15_PT054H.grib2 2026-05-01 04:10 1.6M
20260501T00Z_MSC_GDPS_Rain-Accum24h_Sfc_LatLon0.15_PT054H.grib2 2026-05-01 04:10 3.2M
20260501T00Z_MSC_GDPS_Rain-Accum3h_Sfc_LatLon0.15_PT054H.grib2 2026-05-01 04:10 1.8M
20260501T00Z_MSC_GDPS_Rain-Accum6h_Sfc_LatLon0.15_PT054H.grib2 2026-05-01 04:10 2.4M
20260501T00Z_MSC_GDPS_Rain-Accum_Sfc_LatLon0.15_PT054H.grib2 2026-05-01 04:10 3.7M
20260501T00Z_MSC_GDPS_RelativeHumidity_AGL-2m_LatLon0.15_PT054H.grib2 2026-05-01 04:10 1.1M
20260501T00Z_MSC_GDPS_RelativeHumidity_IsbL-0010_LatLon0.15_PT054H.grib2 2026-05-01 04:10 202K
20260501T00Z_MSC_GDPS_RelativeHumidity_IsbL-0020_LatLon0.15_PT054H.grib2 2026-05-01 04:10 168K
20260501T00Z_MSC_GDPS_RelativeHumidity_IsbL-0030_LatLon0.15_PT054H.grib2 2026-05-01 04:10 269K
20260501T00Z_MSC_GDPS_RelativeHumidity_IsbL-0050_LatLon0.15_PT054H.grib2 2026-05-01 04:10 421K
20260501T00Z_MSC_GDPS_RelativeHumidity_IsbL-0100_LatLon0.15_PT054H.grib2 2026-05-01 04:10 511K
20260501T00Z_MSC_GDPS_RelativeHumidity_IsbL-0150_LatLon0.15_PT054H.grib2 2026-05-01 04:10 656K
20260501T00Z_MSC_GDPS_RelativeHumidity_IsbL-0175_LatLon0.15_PT054H.grib2 2026-05-01 04:10 781K
20260501T00Z_MSC_GDPS_RelativeHumidity_IsbL-0200_LatLon0.15_PT054H.grib2 2026-05-01 04:10 702K
20260501T00Z_MSC_GDPS_RelativeHumidity_IsbL-0225_LatLon0.15_PT054H.grib2 2026-05-01 04:10 784K
20260501T00Z_MSC_GDPS_RelativeHumidity_IsbL-0250_LatLon0.15_PT054H.grib2 2026-05-01 04:10 855K
20260501T00Z_MSC_GDPS_RelativeHumidity_IsbL-0275_LatLon0.15_PT054H.grib2 2026-05-01 04:10 879K
20260501T00Z_MSC_GDPS_RelativeHumidity_IsbL-0300_LatLon0.15_PT054H.grib2 2026-05-01 04:10 918K
20260501T00Z_MSC_GDPS_RelativeHumidity_IsbL-0350_LatLon0.15_PT054H.grib2 2026-05-01 04:10 942K
20260501T00Z_MSC_GDPS_RelativeHumidity_IsbL-0400_LatLon0.15_PT054H.grib2 2026-05-01 04:10 967K
20260501T00Z_MSC_GDPS_RelativeHumidity_IsbL-0450_LatLon0.15_PT054H.grib2 2026-05-01 04:10 1.0M
20260501T00Z_MSC_GDPS_RelativeHumidity_IsbL-0500_LatLon0.15_PT054H.grib2 2026-05-01 04:10 1.0M
20260501T00Z_MSC_GDPS_RelativeHumidity_IsbL-0550_LatLon0.15_PT054H.grib2 2026-05-01 04:10 1.1M
20260501T00Z_MSC_GDPS_RelativeHumidity_IsbL-0600_LatLon0.15_PT054H.grib2 2026-05-01 04:10 1.1M
20260501T00Z_MSC_GDPS_RelativeHumidity_IsbL-0650_LatLon0.15_PT054H.grib2 2026-05-01 04:10 1.1M
20260501T00Z_MSC_GDPS_RelativeHumidity_IsbL-0700_LatLon0.15_PT054H.grib2 2026-05-01 04:10 1.1M
20260501T00Z_MSC_GDPS_RelativeHumidity_IsbL-0750_LatLon0.15_PT054H.grib2 2026-05-01 04:10 1.2M
20260501T00Z_MSC_GDPS_RelativeHumidity_IsbL-0800_LatLon0.15_PT054H.grib2 2026-05-01 04:10 1.2M
20260501T00Z_MSC_GDPS_RelativeHumidity_IsbL-0850_LatLon0.15_PT054H.grib2 2026-05-01 04:10 1.3M
20260501T00Z_MSC_GDPS_RelativeHumidity_IsbL-0875_LatLon0.15_PT054H.grib2 2026-05-01 04:10 1.3M
20260501T00Z_MSC_GDPS_RelativeHumidity_IsbL-0900_LatLon0.15_PT054H.grib2 2026-05-01 04:10 1.2M
20260501T00Z_MSC_GDPS_RelativeHumidity_IsbL-0925_LatLon0.15_PT054H.grib2 2026-05-01 04:10 1.2M
20260501T00Z_MSC_GDPS_RelativeHumidity_IsbL-0950_LatLon0.15_PT054H.grib2 2026-05-01 04:10 1.2M
20260501T00Z_MSC_GDPS_RelativeHumidity_IsbL-0970_LatLon0.15_PT054H.grib2 2026-05-01 04:10 1.2M
20260501T00Z_MSC_GDPS_RelativeHumidity_IsbL-0985_LatLon0.15_PT054H.grib2 2026-05-01 04:10 1.1M
20260501T00Z_MSC_GDPS_RelativeHumidity_IsbL-1000_LatLon0.15_PT054H.grib2 2026-05-01 04:10 1.1M
20260501T00Z_MSC_GDPS_RelativeHumidity_IsbL-1015_LatLon0.15_PT054H.grib2 2026-05-01 04:10 1.0M
20260501T00Z_MSC_GDPS_RelativeVorticity_IsbL-0200_LatLon0.15_PT054H.grib2 2026-05-01 04:10 1.5M
20260501T00Z_MSC_GDPS_RelativeVorticity_IsbL-0250_LatLon0.15_PT054H.grib2 2026-05-01 04:10 1.3M
20260501T00Z_MSC_GDPS_RelativeVorticity_IsbL-0500_LatLon0.15_PT054H.grib2 2026-05-01 04:10 1.4M
20260501T00Z_MSC_GDPS_RelativeVorticity_IsbL-0700_LatLon0.15_PT054H.grib2 2026-05-01 04:10 1.3M
20260501T00Z_MSC_GDPS_RelativeVorticity_IsbL-0850_LatLon0.15_PT054H.grib2 2026-05-01 04:10 1.6M
20260501T00Z_MSC_GDPS_Runoff-Accum_Sfc_LatLon0.15_PT054H.grib2 2026-05-01 04:10 134K
20260501T00Z_MSC_GDPS_SensibleHeatNetFlux_Sfc_LatLon0.15_PT054H.grib2 2026-05-01 04:10 652K
20260501T00Z_MSC_GDPS_ShowalterIndex_IsbL-0500_LatLon0.15_PT054H.grib2 2026-05-01 04:10 6.2M
20260501T00Z_MSC_GDPS_Snow-Accum12h_Sfc_LatLon0.15_PT054H.grib2 2026-05-01 04:10 1.5M
20260501T00Z_MSC_GDPS_Snow-Accum1h_Sfc_LatLon0.15_PT054H.grib2 2026-05-01 04:10 911K
20260501T00Z_MSC_GDPS_Snow-Accum24h_Sfc_LatLon0.15_PT054H.grib2 2026-05-01 04:10 1.6M
20260501T00Z_MSC_GDPS_Snow-Accum3h_Sfc_LatLon0.15_PT054H.grib2 2026-05-01 04:10 946K
20260501T00Z_MSC_GDPS_Snow-Accum6h_Sfc_LatLon0.15_PT054H.grib2 2026-05-01 04:10 1.4M
20260501T00Z_MSC_GDPS_Snow-Accum_Sfc_LatLon0.15_PT054H.grib2 2026-05-01 04:10 1.8M
20260501T00Z_MSC_GDPS_SnowDensity_Sfc_LatLon0.15_PT054H.grib2 2026-05-01 04:10 262K
20260501T00Z_MSC_GDPS_SnowDepth_Sfc_LatLon0.15_PT054H.grib2 2026-05-01 04:10 1.7M
20260501T00Z_MSC_GDPS_SoilTemp_DBS-0to10cm_LatLon0.15_PT054H.grib2 2026-05-01 04:10 506K
20260501T00Z_MSC_GDPS_SoilTemp_Sfc_LatLon0.15_PT054H.grib2 2026-05-01 04:10 580K
20260501T00Z_MSC_GDPS_SoilVolumetricIceContent_Sfc_LatLon0.15_PT054H.grib2 2026-05-01 04:10 199K
20260501T00Z_MSC_GDPS_SoilVolumetricWaterContent_DBS-0to10cm_LatLon0.15_PT054H.grib2 2026-05-01 04:10 588K
20260501T00Z_MSC_GDPS_SoilVolumetricWaterContent_DBS-0to1cm_LatLon0.15_PT054H.grib2 2026-05-01 04:10 653K
20260501T00Z_MSC_GDPS_SpecificHumidity_AGL-120m_LatLon0.15_PT054H.grib2 2026-05-01 04:10 1.1M
20260501T00Z_MSC_GDPS_SpecificHumidity_AGL-2m_LatLon0.15_PT054H.grib2 2026-05-01 04:10 1.2M
20260501T00Z_MSC_GDPS_SpecificHumidity_AGL-40m_LatLon0.15_PT054H.grib2 2026-05-01 04:10 1.1M
20260501T00Z_MSC_GDPS_SpecificHumidity_AGL-80m_LatLon0.15_PT054H.grib2 2026-05-01 04:10 1.1M
20260501T00Z_MSC_GDPS_SpecificHumidity_IsbL-0001_LatLon0.15_PT054H.grib2 2026-05-01 04:10 1.3M
20260501T00Z_MSC_GDPS_SpecificHumidity_IsbL-0005_LatLon0.15_PT054H.grib2 2026-05-01 04:10 1.2M
20260501T00Z_MSC_GDPS_SpecificHumidity_IsbL-0010_LatLon0.15_PT054H.grib2 2026-05-01 04:10 1.3M
20260501T00Z_MSC_GDPS_SpecificHumidity_IsbL-0020_LatLon0.15_PT054H.grib2 2026-05-01 04:10 1.4M
20260501T00Z_MSC_GDPS_SpecificHumidity_IsbL-0030_LatLon0.15_PT054H.grib2 2026-05-01 04:10 1.3M
20260501T00Z_MSC_GDPS_SpecificHumidity_IsbL-0050_LatLon0.15_PT054H.grib2 2026-05-01 04:10 1.7M
20260501T00Z_MSC_GDPS_SpecificHumidity_IsbL-0100_LatLon0.15_PT054H.grib2 2026-05-01 04:10 1.3M
20260501T00Z_MSC_GDPS_SpecificHumidity_IsbL-0150_LatLon0.15_PT054H.grib2 2026-05-01 04:10 1.3M
20260501T00Z_MSC_GDPS_SpecificHumidity_IsbL-0175_LatLon0.15_PT054H.grib2 2026-05-01 04:10 1.2M
20260501T00Z_MSC_GDPS_SpecificHumidity_IsbL-0200_LatLon0.15_PT054H.grib2 2026-05-01 04:10 1.3M
20260501T00Z_MSC_GDPS_SpecificHumidity_IsbL-0225_LatLon0.15_PT054H.grib2 2026-05-01 04:10 1.3M
20260501T00Z_MSC_GDPS_SpecificHumidity_IsbL-0250_LatLon0.15_PT054H.grib2 2026-05-01 04:10 1.4M
20260501T00Z_MSC_GDPS_SpecificHumidity_IsbL-0275_LatLon0.15_PT054H.grib2 2026-05-01 04:10 1.3M
20260501T00Z_MSC_GDPS_SpecificHumidity_IsbL-0300_LatLon0.15_PT054H.grib2 2026-05-01 04:10 1.2M
20260501T00Z_MSC_GDPS_SpecificHumidity_IsbL-0350_LatLon0.15_PT054H.grib2 2026-05-01 04:10 1.5M
20260501T00Z_MSC_GDPS_SpecificHumidity_IsbL-0400_LatLon0.15_PT054H.grib2 2026-05-01 04:10 1.4M
20260501T00Z_MSC_GDPS_SpecificHumidity_IsbL-0450_LatLon0.15_PT054H.grib2 2026-05-01 04:10 1.6M
20260501T00Z_MSC_GDPS_SpecificHumidity_IsbL-0500_LatLon0.15_PT054H.grib2 2026-05-01 04:10 1.4M
20260501T00Z_MSC_GDPS_SpecificHumidity_IsbL-0550_LatLon0.15_PT054H.grib2 2026-05-01 04:10 1.6M
20260501T00Z_MSC_GDPS_SpecificHumidity_IsbL-0600_LatLon0.15_PT054H.grib2 2026-05-01 04:10 1.7M
20260501T00Z_MSC_GDPS_SpecificHumidity_IsbL-0650_LatLon0.15_PT054H.grib2 2026-05-01 04:10 1.5M
20260501T00Z_MSC_GDPS_SpecificHumidity_IsbL-0700_LatLon0.15_PT054H.grib2 2026-05-01 04:10 1.6M
20260501T00Z_MSC_GDPS_SpecificHumidity_IsbL-0750_LatLon0.15_PT054H.grib2 2026-05-01 04:10 1.7M
20260501T00Z_MSC_GDPS_SpecificHumidity_IsbL-0800_LatLon0.15_PT054H.grib2 2026-05-01 04:10 1.8M
20260501T00Z_MSC_GDPS_SpecificHumidity_IsbL-0850_LatLon0.15_PT054H.grib2 2026-05-01 04:10 1.9M
20260501T00Z_MSC_GDPS_SpecificHumidity_IsbL-0875_LatLon0.15_PT054H.grib2 2026-05-01 04:10 1.9M
20260501T00Z_MSC_GDPS_SpecificHumidity_IsbL-0900_LatLon0.15_PT054H.grib2 2026-05-01 04:10 1.6M
20260501T00Z_MSC_GDPS_SpecificHumidity_IsbL-0925_LatLon0.15_PT054H.grib2 2026-05-01 04:10 1.6M
20260501T00Z_MSC_GDPS_SpecificHumidity_IsbL-0950_LatLon0.15_PT054H.grib2 2026-05-01 04:10 1.6M
20260501T00Z_MSC_GDPS_SpecificHumidity_IsbL-0970_LatLon0.15_PT054H.grib2 2026-05-01 04:10 1.5M
20260501T00Z_MSC_GDPS_SpecificHumidity_IsbL-0985_LatLon0.15_PT054H.grib2 2026-05-01 04:10 1.5M
20260501T00Z_MSC_GDPS_SpecificHumidity_IsbL-1000_LatLon0.15_PT054H.grib2 2026-05-01 04:10 1.5M
20260501T00Z_MSC_GDPS_SpecificHumidity_IsbL-1015_LatLon0.15_PT054H.grib2 2026-05-01 04:10 1.4M
20260501T00Z_MSC_GDPS_SpecificHumidity_Sfc_LatLon0.15_PT054H.grib2 2026-05-01 04:10 666K
20260501T00Z_MSC_GDPS_Thickness_IsbL-0850to0700_LatLon0.15_PT054H.grib2 2026-05-01 04:10 465K
20260501T00Z_MSC_GDPS_Thickness_IsbL-1000to0500_LatLon0.15_PT054H.grib2 2026-05-01 04:10 370K
20260501T00Z_MSC_GDPS_Thickness_IsbL-1000to0850_LatLon0.15_PT054H.grib2 2026-05-01 04:10 490K
20260501T00Z_MSC_GDPS_TotalCloudCover_Sfc_LatLon0.15_PT054H.grib2 2026-05-01 04:10 819K
20260501T00Z_MSC_GDPS_TotalTotalsIndex_Sfc_LatLon0.15_PT054H.grib2 2026-05-01 04:10 6.2M
20260501T00Z_MSC_GDPS_UVIndex-ClearSky_Sfc_LatLon0.15_PT054H.grib2 2026-05-01 04:50 1.1M
20260501T00Z_MSC_GDPS_UVIndex_Sfc_LatLon0.15_PT054H.grib2 2026-05-01 04:50 1.5M
20260501T00Z_MSC_GDPS_UpwardLongwaveRadiationFlux_NTAtm_LatLon0.15_PT054H.grib2 2026-05-01 04:10 836K
20260501T00Z_MSC_GDPS_VerticalVelocity_IsbL-0200_LatLon0.15_PT054H.grib2 2026-05-01 04:10 1.1M
20260501T00Z_MSC_GDPS_VerticalVelocity_IsbL-0250_LatLon0.15_PT054H.grib2 2026-05-01 04:10 1.0M
20260501T00Z_MSC_GDPS_VerticalVelocity_IsbL-0500_LatLon0.15_PT054H.grib2 2026-05-01 04:10 1.3M
20260501T00Z_MSC_GDPS_VerticalVelocity_IsbL-0600_LatLon0.15_PT054H.grib2 2026-05-01 04:10 1.1M
20260501T00Z_MSC_GDPS_VerticalVelocity_IsbL-0700_LatLon0.15_PT054H.grib2 2026-05-01 04:10 1.1M
20260501T00Z_MSC_GDPS_VerticalVelocity_IsbL-0850_LatLon0.15_PT054H.grib2 2026-05-01 04:10 1.6M
20260501T00Z_MSC_GDPS_WindChill_Sfc_LatLon0.15_PT054H.grib2 2026-05-01 04:10 5.3M
20260501T00Z_MSC_GDPS_WindDir_AGL-10m_LatLon0.15_PT054H.grib2 2026-05-01 04:10 1.3M
20260501T00Z_MSC_GDPS_WindDir_AGL-120m_LatLon0.15_PT054H.grib2 2026-05-01 04:10 1.3M
20260501T00Z_MSC_GDPS_WindDir_AGL-40m_LatLon0.15_PT054H.grib2 2026-05-01 04:10 1.4M
20260501T00Z_MSC_GDPS_WindDir_AGL-80m_LatLon0.15_PT054H.grib2 2026-05-01 04:10 1.4M
20260501T00Z_MSC_GDPS_WindDir_IsbL-0001_LatLon0.15_PT054H.grib2 2026-05-01 04:10 699K
20260501T00Z_MSC_GDPS_WindDir_IsbL-0005_LatLon0.15_PT054H.grib2 2026-05-01 04:10 816K
20260501T00Z_MSC_GDPS_WindDir_IsbL-0010_LatLon0.15_PT054H.grib2 2026-05-01 04:10 850K
20260501T00Z_MSC_GDPS_WindDir_IsbL-0020_LatLon0.15_PT054H.grib2 2026-05-01 04:10 948K
20260501T00Z_MSC_GDPS_WindDir_IsbL-0030_LatLon0.15_PT054H.grib2 2026-05-01 04:10 942K
20260501T00Z_MSC_GDPS_WindDir_IsbL-0050_LatLon0.15_PT054H.grib2 2026-05-01 04:10 953K
20260501T00Z_MSC_GDPS_WindDir_IsbL-0100_LatLon0.15_PT054H.grib2 2026-05-01 04:10 1.0M
20260501T00Z_MSC_GDPS_WindDir_IsbL-0150_LatLon0.15_PT054H.grib2 2026-05-01 04:10 1.0M
20260501T00Z_MSC_GDPS_WindDir_IsbL-0175_LatLon0.15_PT054H.grib2 2026-05-01 04:10 1.0M
20260501T00Z_MSC_GDPS_WindDir_IsbL-0200_LatLon0.15_PT054H.grib2 2026-05-01 04:10 1.1M
20260501T00Z_MSC_GDPS_WindDir_IsbL-0225_LatLon0.15_PT054H.grib2 2026-05-01 04:10 1.1M
20260501T00Z_MSC_GDPS_WindDir_IsbL-0250_LatLon0.15_PT054H.grib2 2026-05-01 04:10 1.1M
20260501T00Z_MSC_GDPS_WindDir_IsbL-0275_LatLon0.15_PT054H.grib2 2026-05-01 04:10 1.2M
20260501T00Z_MSC_GDPS_WindDir_IsbL-0300_LatLon0.15_PT054H.grib2 2026-05-01 04:10 1.2M
20260501T00Z_MSC_GDPS_WindDir_IsbL-0350_LatLon0.15_PT054H.grib2 2026-05-01 04:10 1.2M
20260501T00Z_MSC_GDPS_WindDir_IsbL-0400_LatLon0.15_PT054H.grib2 2026-05-01 04:10 1.3M
20260501T00Z_MSC_GDPS_WindDir_IsbL-0450_LatLon0.15_PT054H.grib2 2026-05-01 04:10 1.3M
20260501T00Z_MSC_GDPS_WindDir_IsbL-0500_LatLon0.15_PT054H.grib2 2026-05-01 04:10 1.3M
20260501T00Z_MSC_GDPS_WindDir_IsbL-0550_LatLon0.15_PT054H.grib2 2026-05-01 04:10 1.4M
20260501T00Z_MSC_GDPS_WindDir_IsbL-0600_LatLon0.15_PT054H.grib2 2026-05-01 04:10 1.4M
20260501T00Z_MSC_GDPS_WindDir_IsbL-0650_LatLon0.15_PT054H.grib2 2026-05-01 04:10 1.5M
20260501T00Z_MSC_GDPS_WindDir_IsbL-0700_LatLon0.15_PT054H.grib2 2026-05-01 04:10 1.6M
20260501T00Z_MSC_GDPS_WindDir_IsbL-0750_LatLon0.15_PT054H.grib2 2026-05-01 04:10 1.7M
20260501T00Z_MSC_GDPS_WindDir_IsbL-0800_LatLon0.15_PT054H.grib2 2026-05-01 04:10 1.8M
20260501T00Z_MSC_GDPS_WindDir_IsbL-0850_LatLon0.15_PT054H.grib2 2026-05-01 04:10 1.9M
20260501T00Z_MSC_GDPS_WindDir_IsbL-0875_LatLon0.15_PT054H.grib2 2026-05-01 04:10 1.9M
20260501T00Z_MSC_GDPS_WindDir_IsbL-0900_LatLon0.15_PT054H.grib2 2026-05-01 04:10 1.9M
20260501T00Z_MSC_GDPS_WindDir_IsbL-0925_LatLon0.15_PT054H.grib2 2026-05-01 04:10 2.0M
20260501T00Z_MSC_GDPS_WindDir_IsbL-0950_LatLon0.15_PT054H.grib2 2026-05-01 04:10 2.0M
20260501T00Z_MSC_GDPS_WindDir_IsbL-0970_LatLon0.15_PT054H.grib2 2026-05-01 04:10 2.0M
20260501T00Z_MSC_GDPS_WindDir_IsbL-0985_LatLon0.15_PT054H.grib2 2026-05-01 04:10 2.0M
20260501T00Z_MSC_GDPS_WindDir_IsbL-1000_LatLon0.15_PT054H.grib2 2026-05-01 04:10 2.0M
20260501T00Z_MSC_GDPS_WindDir_IsbL-1015_LatLon0.15_PT054H.grib2 2026-05-01 04:10 2.0M
20260501T00Z_MSC_GDPS_WindGust-Max_AGL-10m_LatLon0.15_PT054H.grib2 2026-05-01 04:10 2.2M
20260501T00Z_MSC_GDPS_WindGust-Min_AGL-10m_LatLon0.15_PT054H.grib2 2026-05-01 04:10 2.1M
20260501T00Z_MSC_GDPS_WindGust_AGL-10m_LatLon0.15_PT054H.grib2 2026-05-01 04:10 2.1M
20260501T00Z_MSC_GDPS_WindSpeed_AGL-10m_LatLon0.15_PT054H.grib2 2026-05-01 04:10 1.1M
20260501T00Z_MSC_GDPS_WindSpeed_AGL-120m_LatLon0.15_PT054H.grib2 2026-05-01 04:10 1.2M
20260501T00Z_MSC_GDPS_WindSpeed_AGL-40m_LatLon0.15_PT054H.grib2 2026-05-01 04:10 1.2M
20260501T00Z_MSC_GDPS_WindSpeed_AGL-80m_LatLon0.15_PT054H.grib2 2026-05-01 04:10 1.2M
20260501T00Z_MSC_GDPS_WindSpeed_IsbL-0001_LatLon0.15_PT054H.grib2 2026-05-01 04:10 643K
20260501T00Z_MSC_GDPS_WindSpeed_IsbL-0005_LatLon0.15_PT054H.grib2 2026-05-01 04:10 692K
20260501T00Z_MSC_GDPS_WindSpeed_IsbL-0010_LatLon0.15_PT054H.grib2 2026-05-01 04:10 625K
20260501T00Z_MSC_GDPS_WindSpeed_IsbL-0020_LatLon0.15_PT054H.grib2 2026-05-01 04:10 665K
20260501T00Z_MSC_GDPS_WindSpeed_IsbL-0030_LatLon0.15_PT054H.grib2 2026-05-01 04:10 861K
20260501T00Z_MSC_GDPS_WindSpeed_IsbL-0050_LatLon0.15_PT054H.grib2 2026-05-01 04:10 906K
20260501T00Z_MSC_GDPS_WindSpeed_IsbL-0100_LatLon0.15_PT054H.grib2 2026-05-01 04:10 1.1M
20260501T00Z_MSC_GDPS_WindSpeed_IsbL-0150_LatLon0.15_PT054H.grib2 2026-05-01 04:10 944K
20260501T00Z_MSC_GDPS_WindSpeed_IsbL-0175_LatLon0.15_PT054H.grib2 2026-05-01 04:10 1.0M
20260501T00Z_MSC_GDPS_WindSpeed_IsbL-0200_LatLon0.15_PT054H.grib2 2026-05-01 04:10 1.1M
20260501T00Z_MSC_GDPS_WindSpeed_IsbL-0225_LatLon0.15_PT054H.grib2 2026-05-01 04:10 1.1M
20260501T00Z_MSC_GDPS_WindSpeed_IsbL-0250_LatLon0.15_PT054H.grib2 2026-05-01 04:10 1.1M
20260501T00Z_MSC_GDPS_WindSpeed_IsbL-0275_LatLon0.15_PT054H.grib2 2026-05-01 04:10 1.1M
20260501T00Z_MSC_GDPS_WindSpeed_IsbL-0300_LatLon0.15_PT054H.grib2 2026-05-01 04:10 1.1M
20260501T00Z_MSC_GDPS_WindSpeed_IsbL-0350_LatLon0.15_PT054H.grib2 2026-05-01 04:10 1.1M
20260501T00Z_MSC_GDPS_WindSpeed_IsbL-0400_LatLon0.15_PT054H.grib2 2026-05-01 04:10 1.1M
20260501T00Z_MSC_GDPS_WindSpeed_IsbL-0450_LatLon0.15_PT054H.grib2 2026-05-01 04:10 1.1M
20260501T00Z_MSC_GDPS_WindSpeed_IsbL-0500_LatLon0.15_PT054H.grib2 2026-05-01 04:10 1.1M
20260501T00Z_MSC_GDPS_WindSpeed_IsbL-0550_LatLon0.15_PT054H.grib2 2026-05-01 04:10 1.1M
20260501T00Z_MSC_GDPS_WindSpeed_IsbL-0600_LatLon0.15_PT054H.grib2 2026-05-01 04:10 1.4M
20260501T00Z_MSC_GDPS_WindSpeed_IsbL-0650_LatLon0.15_PT054H.grib2 2026-05-01 04:10 1.4M
20260501T00Z_MSC_GDPS_WindSpeed_IsbL-0700_LatLon0.15_PT054H.grib2 2026-05-01 04:10 1.5M
20260501T00Z_MSC_GDPS_WindSpeed_IsbL-0750_LatLon0.15_PT054H.grib2 2026-05-01 04:10 1.5M
20260501T00Z_MSC_GDPS_WindSpeed_IsbL-0800_LatLon0.15_PT054H.grib2 2026-05-01 04:10 1.6M
20260501T00Z_MSC_GDPS_WindSpeed_IsbL-0850_LatLon0.15_PT054H.grib2 2026-05-01 04:10 1.7M
20260501T00Z_MSC_GDPS_WindSpeed_IsbL-0875_LatLon0.15_PT054H.grib2 2026-05-01 04:10 1.8M
20260501T00Z_MSC_GDPS_WindSpeed_IsbL-0900_LatLon0.15_PT054H.grib2 2026-05-01 04:10 1.8M
20260501T00Z_MSC_GDPS_WindSpeed_IsbL-0925_LatLon0.15_PT054H.grib2 2026-05-01 04:10 1.9M
20260501T00Z_MSC_GDPS_WindSpeed_IsbL-0950_LatLon0.15_PT054H.grib2 2026-05-01 04:10 1.9M
20260501T00Z_MSC_GDPS_WindSpeed_IsbL-0970_LatLon0.15_PT054H.grib2 2026-05-01 04:10 1.9M
20260501T00Z_MSC_GDPS_WindSpeed_IsbL-0985_LatLon0.15_PT054H.grib2 2026-05-01 04:10 1.8M
20260501T00Z_MSC_GDPS_WindSpeed_IsbL-1000_LatLon0.15_PT054H.grib2 2026-05-01 04:10 1.8M
20260501T00Z_MSC_GDPS_WindSpeed_IsbL-1015_LatLon0.15_PT054H.grib2 2026-05-01 04:10 1.8M
20260501T00Z_MSC_GDPS_WindU_AGL-10m_LatLon0.15_PT054H.grib2 2026-05-01 04:10 1.3M
20260501T00Z_MSC_GDPS_WindU_AGL-120m_LatLon0.15_PT054H.grib2 2026-05-01 04:10 1.0M
20260501T00Z_MSC_GDPS_WindU_AGL-40m_LatLon0.15_PT054H.grib2 2026-05-01 04:10 965K
20260501T00Z_MSC_GDPS_WindU_AGL-80m_LatLon0.15_PT054H.grib2 2026-05-01 04:10 970K
20260501T00Z_MSC_GDPS_WindU_IsbL-0001_LatLon0.15_PT054H.grib2 2026-05-01 04:10 501K
20260501T00Z_MSC_GDPS_WindU_IsbL-0005_LatLon0.15_PT054H.grib2 2026-05-01 04:10 687K
20260501T00Z_MSC_GDPS_WindU_IsbL-0010_LatLon0.15_PT054H.grib2 2026-05-01 04:10 700K
20260501T00Z_MSC_GDPS_WindU_IsbL-0020_LatLon0.15_PT054H.grib2 2026-05-01 04:10 731K
20260501T00Z_MSC_GDPS_WindU_IsbL-0030_LatLon0.15_PT054H.grib2 2026-05-01 04:10 737K
20260501T00Z_MSC_GDPS_WindU_IsbL-0050_LatLon0.15_PT054H.grib2 2026-05-01 04:10 767K
20260501T00Z_MSC_GDPS_WindU_IsbL-0100_LatLon0.15_PT054H.grib2 2026-05-01 04:10 921K
20260501T00Z_MSC_GDPS_WindU_IsbL-0150_LatLon0.15_PT054H.grib2 2026-05-01 04:10 1.0M
20260501T00Z_MSC_GDPS_WindU_IsbL-0175_LatLon0.15_PT054H.grib2 2026-05-01 04:10 1.0M
20260501T00Z_MSC_GDPS_WindU_IsbL-0200_LatLon0.15_PT054H.grib2 2026-05-01 04:10 838K
20260501T00Z_MSC_GDPS_WindU_IsbL-0225_LatLon0.15_PT054H.grib2 2026-05-01 04:10 848K
20260501T00Z_MSC_GDPS_WindU_IsbL-0250_LatLon0.15_PT054H.grib2 2026-05-01 04:10 852K
20260501T00Z_MSC_GDPS_WindU_IsbL-0275_LatLon0.15_PT054H.grib2 2026-05-01 04:10 878K
20260501T00Z_MSC_GDPS_WindU_IsbL-0300_LatLon0.15_PT054H.grib2 2026-05-01 04:10 871K
20260501T00Z_MSC_GDPS_WindU_IsbL-0350_LatLon0.15_PT054H.grib2 2026-05-01 04:10 884K
20260501T00Z_MSC_GDPS_WindU_IsbL-0400_LatLon0.15_PT054H.grib2 2026-05-01 04:10 1.1M
20260501T00Z_MSC_GDPS_WindU_IsbL-0450_LatLon0.15_PT054H.grib2 2026-05-01 04:10 1.1M
20260501T00Z_MSC_GDPS_WindU_IsbL-0500_LatLon0.15_PT054H.grib2 2026-05-01 04:10 1.1M
20260501T00Z_MSC_GDPS_WindU_IsbL-0550_LatLon0.15_PT054H.grib2 2026-05-01 04:10 1.1M
20260501T00Z_MSC_GDPS_WindU_IsbL-0600_LatLon0.15_PT054H.grib2 2026-05-01 04:10 1.1M
20260501T00Z_MSC_GDPS_WindU_IsbL-0650_LatLon0.15_PT054H.grib2 2026-05-01 04:10 1.2M
20260501T00Z_MSC_GDPS_WindU_IsbL-0700_LatLon0.15_PT054H.grib2 2026-05-01 04:10 1.2M
20260501T00Z_MSC_GDPS_WindU_IsbL-0750_LatLon0.15_PT054H.grib2 2026-05-01 04:10 1.3M
20260501T00Z_MSC_GDPS_WindU_IsbL-0800_LatLon0.15_PT054H.grib2 2026-05-01 04:10 1.3M
20260501T00Z_MSC_GDPS_WindU_IsbL-0850_LatLon0.15_PT054H.grib2 2026-05-01 04:10 1.4M
20260501T00Z_MSC_GDPS_WindU_IsbL-0875_LatLon0.15_PT054H.grib2 2026-05-01 04:10 1.4M
20260501T00Z_MSC_GDPS_WindU_IsbL-0900_LatLon0.15_PT054H.grib2 2026-05-01 04:10 1.5M
20260501T00Z_MSC_GDPS_WindU_IsbL-0925_LatLon0.15_PT054H.grib2 2026-05-01 04:10 1.5M
20260501T00Z_MSC_GDPS_WindU_IsbL-0950_LatLon0.15_PT054H.grib2 2026-05-01 04:10 1.4M
20260501T00Z_MSC_GDPS_WindU_IsbL-0970_LatLon0.15_PT054H.grib2 2026-05-01 04:10 1.4M
20260501T00Z_MSC_GDPS_WindU_IsbL-0985_LatLon0.15_PT054H.grib2 2026-05-01 04:10 1.4M
20260501T00Z_MSC_GDPS_WindU_IsbL-1000_LatLon0.15_PT054H.grib2 2026-05-01 04:10 1.4M
20260501T00Z_MSC_GDPS_WindU_IsbL-1015_LatLon0.15_PT054H.grib2 2026-05-01 04:10 1.3M
20260501T00Z_MSC_GDPS_WindV_AGL-10m_LatLon0.15_PT054H.grib2 2026-05-01 04:10 1.3M
20260501T00Z_MSC_GDPS_WindV_AGL-120m_LatLon0.15_PT054H.grib2 2026-05-01 04:10 1.0M
20260501T00Z_MSC_GDPS_WindV_AGL-40m_LatLon0.15_PT054H.grib2 2026-05-01 04:10 960K
20260501T00Z_MSC_GDPS_WindV_AGL-80m_LatLon0.15_PT054H.grib2 2026-05-01 04:10 966K
20260501T00Z_MSC_GDPS_WindV_IsbL-0001_LatLon0.15_PT054H.grib2 2026-05-01 04:10 709K
20260501T00Z_MSC_GDPS_WindV_IsbL-0005_LatLon0.15_PT054H.grib2 2026-05-01 04:10 855K
20260501T00Z_MSC_GDPS_WindV_IsbL-0010_LatLon0.15_PT054H.grib2 2026-05-01 04:10 882K
20260501T00Z_MSC_GDPS_WindV_IsbL-0020_LatLon0.15_PT054H.grib2 2026-05-01 04:10 932K
20260501T00Z_MSC_GDPS_WindV_IsbL-0030_LatLon0.15_PT054H.grib2 2026-05-01 04:10 936K
20260501T00Z_MSC_GDPS_WindV_IsbL-0050_LatLon0.15_PT054H.grib2 2026-05-01 04:10 1.0M
20260501T00Z_MSC_GDPS_WindV_IsbL-0100_LatLon0.15_PT054H.grib2 2026-05-01 04:10 1.1M
20260501T00Z_MSC_GDPS_WindV_IsbL-0150_LatLon0.15_PT054H.grib2 2026-05-01 04:10 1.0M
20260501T00Z_MSC_GDPS_WindV_IsbL-0175_LatLon0.15_PT054H.grib2 2026-05-01 04:10 1.0M
20260501T00Z_MSC_GDPS_WindV_IsbL-0200_LatLon0.15_PT054H.grib2 2026-05-01 04:10 837K
20260501T00Z_MSC_GDPS_WindV_IsbL-0225_LatLon0.15_PT054H.grib2 2026-05-01 04:10 846K
20260501T00Z_MSC_GDPS_WindV_IsbL-0250_LatLon0.15_PT054H.grib2 2026-05-01 04:10 845K
20260501T00Z_MSC_GDPS_WindV_IsbL-0275_LatLon0.15_PT054H.grib2 2026-05-01 04:10 931K
20260501T00Z_MSC_GDPS_WindV_IsbL-0300_LatLon0.15_PT054H.grib2 2026-05-01 04:10 920K
20260501T00Z_MSC_GDPS_WindV_IsbL-0350_LatLon0.15_PT054H.grib2 2026-05-01 04:10 931K
20260501T00Z_MSC_GDPS_WindV_IsbL-0400_LatLon0.15_PT054H.grib2 2026-05-01 04:10 876K
20260501T00Z_MSC_GDPS_WindV_IsbL-0450_LatLon0.15_PT054H.grib2 2026-05-01 04:10 879K
20260501T00Z_MSC_GDPS_WindV_IsbL-0500_LatLon0.15_PT054H.grib2 2026-05-01 04:10 1.1M
20260501T00Z_MSC_GDPS_WindV_IsbL-0550_LatLon0.15_PT054H.grib2 2026-05-01 04:10 1.1M
20260501T00Z_MSC_GDPS_WindV_IsbL-0600_LatLon0.15_PT054H.grib2 2026-05-01 04:10 1.1M
20260501T00Z_MSC_GDPS_WindV_IsbL-0650_LatLon0.15_PT054H.grib2 2026-05-01 04:10 1.2M
20260501T00Z_MSC_GDPS_WindV_IsbL-0700_LatLon0.15_PT054H.grib2 2026-05-01 04:10 1.2M
20260501T00Z_MSC_GDPS_WindV_IsbL-0750_LatLon0.15_PT054H.grib2 2026-05-01 04:10 1.3M
20260501T00Z_MSC_GDPS_WindV_IsbL-0800_LatLon0.15_PT054H.grib2 2026-05-01 04:10 1.3M
20260501T00Z_MSC_GDPS_WindV_IsbL-0850_LatLon0.15_PT054H.grib2 2026-05-01 04:10 1.4M
20260501T00Z_MSC_GDPS_WindV_IsbL-0875_LatLon0.15_PT054H.grib2 2026-05-01 04:10 1.4M
20260501T00Z_MSC_GDPS_WindV_IsbL-0900_LatLon0.15_PT054H.grib2 2026-05-01 04:10 1.4M
20260501T00Z_MSC_GDPS_WindV_IsbL-0925_LatLon0.15_PT054H.grib2 2026-05-01 04:10 1.4M
20260501T00Z_MSC_GDPS_WindV_IsbL-0950_LatLon0.15_PT054H.grib2 2026-05-01 04:10 1.4M
20260501T00Z_MSC_GDPS_WindV_IsbL-0970_LatLon0.15_PT054H.grib2 2026-05-01 04:10 1.4M
20260501T00Z_MSC_GDPS_WindV_IsbL-0985_LatLon0.15_PT054H.grib2 2026-05-01 04:10 1.4M
20260501T00Z_MSC_GDPS_WindV_IsbL-1000_LatLon0.15_PT054H.grib2 2026-05-01 04:10 1.4M
20260501T00Z_MSC_GDPS_WindV_IsbL-1015_LatLon0.15_PT054H.grib2 2026-05-01 04:10 1.3M